Weather History for KMUT - January, 2012

Change the Weather History Date:

Sunday, January 8, 2012

  Actual Average Record
Temperature  
Mean Temperature 32 °F -  
Max Temperature 42 °F 25 °F 66 °F (2003)
Min Temperature 21 °F 8 °F -15 °F (1970)
Degree Days  
Heating Degree Days 34    
Moisture  
Dew Point 23 °F    
Average Humidity 74    
Maximum Humidity 86    
Minimum Humidity 53    
Precipitation  
Precipitation 0.00 in - - ()
Sea Level Pressure  
Sea Level Pressure 30.31 in    
Wind  
Wind Speed 0 mph (WSW)    
Max Wind Speed 4 mph    
Max Gust Speed -    
Visibility 10 miles    
Events      
Averages and records for this station are not official NWS values.
T = Trace of Precipitation, MM = Missing Value Source: NWS Daily Summary

Daily Weather History Graph

Daily Weather History Graph

Search for Another Location

Airport or City:

Trip Planner

Search our weather history database for the weather conditions in past years. The results will help you decide how hot, cold, wet, or windy it might be!

Date:

Astronomy

Jan. 08, 2012 Rise Set
Actual Time 7:30 AM CST 4:52 PM CST
Civil Twilight 6:59 AM CST 5:22 PM CST
Nautical Twilight 6:25 AM CST 5:57 PM CST
Astronomical Twilight 5:51 AM CST 6:30 PM CST
Moon 4:35 PM CST (1/8) 6:49 AM CST (1/8)
Length of Visible Light 10h 23m
Length of Day
9h 21m
Full, 100% of the Moon is Illuminated
Jan 8
Full
Jan 9
Full
Jan 16
Last Quarter
Jan 23
New
Jan 30
First Quarter

Hourly Weather History & Observations

Time (CST) Temp. Windchill Dew Point Humidity Pressure Visibility Wind Dir Wind Speed Gust Speed Precip Events Conditions
12:15 AM 28.4 °F - 23.0 °F 80% 30.27 in 10.0 mi Calm Calm - N/A   Clear
12:35 AM 30.2 °F - 24.8 °F 80% 30.27 in 10.0 mi Calm Calm - N/A   Clear
12:55 AM 28.4 °F - 23.0 °F 80% 30.26 in 10.0 mi Calm Calm - N/A   Clear
1:15 AM 28.4 °F - 21.2 °F 74% 30.27 in 10.0 mi Calm Calm - N/A   Clear
1:35 AM 26.6 °F - 23.0 °F 86% 30.27 in 10.0 mi Calm Calm - N/A   Clear
1:55 AM 26.6 °F - 21.2 °F 80% 30.28 in 10.0 mi North - - N/A   Clear
2:15 AM 24.8 °F - 21.2 °F 86% 30.28 in 10.0 mi North - - N/A   Clear
2:35 AM 23.0 °F - 19.4 °F 86% 30.28 in 10.0 mi Calm Calm - N/A   Clear
2:55 AM 24.8 °F - 19.4 °F 80% 30.27 in 10.0 mi Calm Calm - N/A   Clear
3:15 AM 23.0 °F - 19.4 °F 86% 30.27 in 7.0 mi Calm Calm - N/A   Clear
3:35 AM 21.2 °F - 17.6 °F 86% 30.28 in 7.0 mi Calm Calm - N/A   Clear
4:35 AM 21.2 °F - 17.6 °F 86% 30.28 in 5.0 mi Calm Calm - N/A   Haze
4:55 AM 21.2 °F - 17.6 °F 86% 30.29 in 10.0 mi Calm Calm - N/A   Clear
5:15 AM 21.2 °F - 17.6 °F 86% 30.29 in 10.0 mi Calm Calm - N/A   Clear
5:35 AM 21.2 °F - 17.6 °F 86% 30.29 in 10.0 mi Calm Calm - N/A   Clear
5:55 AM 21.2 °F - 17.6 °F 86% 30.29 in 10.0 mi Calm Calm - N/A   Clear
6:15 AM 21.2 °F - 17.6 °F 86% 30.29 in 10.0 mi Calm Calm - N/A   Clear
6:35 AM 23.0 °F - 17.6 °F 80% 30.30 in 10.0 mi Calm Calm - N/A   Clear
6:55 AM 23.0 °F - 17.6 °F 80% 30.31 in 10.0 mi Calm Calm - N/A   Clear
7:15 AM 23.0 °F - 17.6 °F 80% 30.31 in 10.0 mi Calm Calm - N/A   Clear
7:35 AM 24.8 °F - 19.4 °F 80% 30.32 in 10.0 mi Calm Calm - N/A   Clear
7:55 AM 24.8 °F - 19.4 °F 80% 30.32 in 10.0 mi Calm Calm - N/A   Clear
8:15 AM 24.8 °F - 19.4 °F 80% 30.32 in 10.0 mi North - - N/A   Clear
8:35 AM 26.6 °F - 21.2 °F 80% 30.33 in 10.0 mi Calm Calm - N/A   Clear
8:55 AM 28.4 °F - 23.0 °F 80% 30.34 in 10.0 mi Calm Calm - N/A   Clear
9:15 AM 28.4 °F - 24.8 °F 86% 30.35 in 10.0 mi Calm Calm - N/A   Clear
9:35 AM 30.2 °F - 24.8 °F 80% 30.35 in 10.0 mi Calm Calm - N/A   Clear
9:55 AM 32.0 °F - 26.6 °F 80% 30.36 in 10.0 mi Calm Calm - N/A   Clear
10:15 AM 33.8 °F - 26.6 °F 75% 30.36 in 10.0 mi Calm Calm - N/A   Clear
10:35 AM 33.8 °F - 26.6 °F 75% 30.36 in 10.0 mi Calm Calm - N/A   Clear
10:55 AM 33.8 °F - 26.6 °F 75% 30.36 in 10.0 mi Calm Calm - N/A   Clear
11:15 AM 35.6 °F - 26.6 °F 70% 30.35 in 10.0 mi Calm Calm - N/A   Clear
11:35 AM 37.4 °F - 26.6 °F 65% 30.35 in 10.0 mi Calm Calm - N/A   Clear
11:55 AM 37.4 °F - 26.6 °F 65% 30.34 in 10.0 mi Calm Calm - N/A   Clear
12:15 PM 37.4 °F - 26.6 °F 65% 30.33 in 10.0 mi Calm Calm - N/A   Clear
12:35 PM 37.4 °F - 26.6 °F 65% 30.32 in 10.0 mi Calm Calm - N/A   Clear
12:55 PM 39.2 °F - 26.6 °F 61% 30.31 in 10.0 mi Calm Calm - N/A   Clear
1:15 PM 39.2 °F - 26.6 °F 61% 30.31 in 10.0 mi Calm Calm - N/A   Clear
1:35 PM 39.2 °F - 26.6 °F 61% 30.31 in 10.0 mi Calm Calm - N/A   Clear
1:55 PM 41.0 °F 39.0 °F 26.6 °F 57% 30.30 in 10.0 mi West 3.5 mph - N/A   Clear
2:15 PM 41.0 °F 39.0 °F 26.6 °F 57% 30.30 in 10.0 mi WSW 3.5 mph - N/A   Clear
2:35 PM 39.2 °F - 26.6 °F 61% 30.30 in 10.0 mi Calm Calm - N/A   Clear
2:55 PM 41.0 °F 39.0 °F 26.6 °F 57% 30.30 in 10.0 mi SW 3.5 mph - N/A   Clear
3:15 PM 41.0 °F - 26.6 °F 57% 30.30 in 10.0 mi Calm Calm - N/A   Clear
3:35 PM 41.0 °F - 26.6 °F 57% 30.30 in 10.0 mi Calm Calm - N/A   Scattered Clouds
3:55 PM 42.8 °F - 26.6 °F 53% 30.30 in 10.0 mi Calm Calm - N/A   Mostly Cloudy
4:15 PM 42.8 °F - 26.6 °F 53% 30.30 in 10.0 mi Calm Calm - N/A   Scattered Clouds
4:35 PM 39.2 °F - 26.6 °F 61% 30.30 in 10.0 mi Calm Calm - N/A   Clear
4:55 PM 37.4 °F - 26.6 °F 65% 30.31 in 10.0 mi Calm Calm - N/A   Clear
5:15 PM 37.4 °F - 26.6 °F 65% 30.31 in 10.0 mi Calm Calm - N/A   Clear
5:35 PM 35.6 °F - 24.8 °F 65% 30.31 in 10.0 mi Calm Calm - N/A   Clear
5:55 PM 32.0 °F - 24.8 °F 75% 30.31 in 10.0 mi Calm Calm - N/A   Clear
6:15 PM 30.2 °F - 23.0 °F 75% 30.32 in 10.0 mi Calm Calm - N/A   Clear
6:35 PM 28.4 °F - 23.0 °F 80% 30.31 in 10.0 mi Calm Calm - N/A   Clear
6:55 PM 28.4 °F - 21.2 °F 74% 30.31 in 10.0 mi Calm Calm - N/A   Clear
7:15 PM 28.4 °F - 23.0 °F 80% 30.31 in 10.0 mi Calm Calm - N/A   Clear
7:35 PM 28.4 °F - 24.8 °F 86% 30.31 in 10.0 mi Calm Calm - N/A   Clear
7:55 PM 26.6 °F - 21.2 °F 80% 30.30 in 10.0 mi Calm Calm - N/A   Clear
8:15 PM 26.6 °F - 23.0 °F 86% 30.30 in 10.0 mi Calm Calm - N/A   Clear
8:35 PM 24.8 °F - 19.4 °F 80% 30.30 in 4.0 mi Calm Calm - N/A   Clear
8:55 PM 26.6 °F - 21.2 °F 80% 30.30 in 10.0 mi Calm Calm - N/A   Clear
9:15 PM 24.8 °F - 19.4 °F 80% 30.30 in 7.0 mi Calm Calm - N/A   Clear
9:35 PM 24.8 °F - 19.4 °F 80% 30.30 in 10.0 mi Calm Calm - N/A   Clear
9:55 PM 24.8 °F - 19.4 °F 80% 30.29 in 4.0 mi Calm Calm - N/A   Clear
10:15 PM 24.8 °F - 19.4 °F 80% 30.29 in 1.8 mi Calm Calm - N/A   Mist
10:35 PM 23.0 °F - 19.4 °F 86% 30.29 in 2.5 mi Calm Calm - N/A   Clear
10:55 PM 23.0 °F - 19.4 °F 86% 30.29 in 7.0 mi Calm Calm - N/A   Clear
11:15 PM 21.2 °F - 17.6 °F 86% 30.29 in 7.0 mi Calm Calm - N/A   Clear
11:35 PM 21.2 °F - 17.6 °F 86% 30.28 in 7.0 mi North - - N/A   Clear
11:55 PM 21.2 °F - 15.8 °F 80% 30.28 in 7.0 mi Calm Calm - N/A   Clear